sat.trackr.live / text

‹ back to catalog

STARLINK-3336

NORAD 50818 · 2022-001R

PAYLOAD ACTIVE UNKNOWN

§ Identity

Operator
Country
US
Launch date
2022-01-06
Launch site
AFETR
Launch vehicle
Mass (kg)
RCS (m²)

Purposes: comms

External: N2YO · Heavens-Above · Gunter

§ Orbital elements

Epoch: 2026-05-25T03:16:25.671936Z

Period
95.44 min
Inclination
53.2131°
Eccentricity
0.0001024
Mean motion
15.08837685 rev/d
Perigee alt
539.0 km
Apogee alt
540.5 km
Semi-major
6,917.9 km
B*
-3.3903e-5
RAAN
185.9384°
Arg perigee
70.8575°
Mean anomaly
289.2528°
Rev number
24,194

§ Raw data

STARLINK-33361 50818U 22001R   26145.13640824 -.00000827  00000+0 -33903-4 0  99932 50818  53.2131 185.9384 0001024  70.8575 289.2528 15.08837685241943

JSON: /api/v1/satellites/50818 · /tle

For live sub-satellite position, see the globe view (requires WebGL).

§ Visibility from observer

Set your observer location to see the next 7 days of passes ≥ 10°. The values pass through the URL so the page stays shareable.

No JS? Fill the form by hand. The geolocation button needs JavaScript.